GW3866 Weather Reports


Display with metric or nautical units.
time (UTC)temp
F
wind
direction
speed
MPH
gust
MPH
rain 1hr
in
rain 24hr
in
rain mn
in
humidity
%
barometer
mb
20260504130539 55 272 2.0 5.0 0.00 0.00 0.00 80 1010.2
20260504110537 55 334 2.0 4.0 0.00 0.00 0.00 80 1010.2
20260504100536 57 353 0.0 2.0 0.00 0.00 0.00 76 1010.0
20260504081550 58 329 1.0 2.0 0.00 0.00 0.00 78 1009.7
20260504081039 58 0 0.0 3.0 0.00 0.00 0.00 77 1009.8
20260504080538 58 0 1.0 3.0 0.00 0.00 0.00 79 1009.8
20260504080106 57 327 1.0 2.0 0.00 0.00 0.00 81 1009.8
20260504050537 61 252 3.0 8.0 0.00 0.00 0.00 75 1009.6
20260504045543 62 62 0.0 3.0 0.00 0.00 0.00 70 1009.6
20260504045037 63 0 0.0 4.0 0.00 0.00 0.00 69 1009.5
20260504044552 63 62 1.0 7.0 0.00 0.00 0.00 70 1009.5
20260504044037 63 62 3.0 7.0 0.00 0.00 0.00 70 1009.5
20260504043542 64 64 3.0 6.0 0.00 0.00 0.00 69 1009.5
20260504043053 64 80 1.0 6.0 0.00 0.00 0.00 66 1009.5
20260504042541 64 79 1.0 6.0 0.00 0.00 0.00 67 1009.4
20260504042041 64 70 3.0 8.0 0.00 0.00 0.00 69 1009.5
20260504041549 65 81 4.0 8.0 0.00 0.00 0.00 65 1009.6
20260504041040 65 80 2.0 5.0 0.00 0.00 0.00 66 1009.5
20260504040540 65 75 3.0 7.0 0.00 0.00 0.00 66 1009.5
20260504040052 65 73 2.0 9.0 0.00 0.00 0.00 65 1009.5
20260504035540 66 72 6.0 9.0 0.00 0.00 0.00 64 1009.5
20260504035042 67 62 5.0 9.0 0.00 0.00 0.00 63 1009.4
20260504034549 69 64 6.0 9.0 0.00 0.00 0.00 60 1009.4
20260504034043 71 55 3.0 6.0 0.00 0.00 0.00 54 1009.5
20260504033537 72 0 2.0 10.0 0.00 0.00 0.00 42 1009.4
20260504033047 72 230 5.0 10.0 0.00 0.00 0.00 42 1009.3
20260504032541 71 238 5.0 10.0 0.00 0.00 0.00 44 1009.4
20260504032041 71 239 5.0 11.0 0.00 0.00 0.00 47 1009.4
20260504031547 71 233 7.0 11.0 0.00 0.00 0.00 47 1009.4
20260504031038 72 243 6.0 13.0 0.00 0.00 0.00 46 1009.4
20260504030540 73 239 9.0 14.0 0.00 0.00 0.00 43 1009.5
20260504030042 72 240 10.0 14.0 0.00 0.00 0.00 43 1009.5
20260504025541 73 247 9.0 13.0 0.00 0.00 0.00 43 1009.6
20260504025041 74 239 10.0 14.0 0.00 0.00 0.00 43 1009.6
20260504024602 75 226 7.0 16.0 0.00 0.00 0.00 38 1009.6
20260504024043 75 249 10.0 16.0 0.00 0.00 0.00 37 1009.6
20260504023540 75 216 11.0 16.0 0.00 0.00 0.00 37 1009.6
20260504023049 75 240 11.0 18.0 0.00 0.00 0.00 38 1009.7
20260504022541 76 245 11.0 18.0 0.00 0.00 0.00 38 1009.7
20260504022040 76 229 11.0 16.0 0.00 0.00 0.00 36 1009.7
20260504021546 76 233 10.0 16.0 0.00 0.00 0.00 36 1009.8
20260504021040 76 226 10.0 17.0 0.00 0.00 0.00 36 1009.7
20260504020539 76 237 12.0 18.0 0.00 0.00 0.00 36 1009.8
20260504020047 76 229 13.0 18.0 0.00 0.00 0.00 36 1009.8
20260504015540 76 225 12.0 19.0 0.00 0.00 0.00 36 1009.8
20260504015036 76 231 13.0 19.0 0.00 0.00 0.00 37 1009.9
20260504014551 75 245 14.0 20.0 0.00 0.00 0.00 38 1009.9
20260504014036 75 238 14.0 20.0 0.00 0.00 0.00 38 1010.1
20260504013536 75 223 14.0 19.0 0.00 0.00 0.00 38 1010.1
20260504013054 75 243 12.0 19.0 0.00 0.00 0.00 38 1010.1
20260504012540 75 227 14.0 20.0 0.00 0.00 0.00 38 1010.1
20260504012037 75 222 15.0 23.0 0.00 0.00 0.00 38 1010.2
20260504011549 75 237 15.0 23.0 0.00 0.00 0.00 38 1010.3
20260504011037 75 251 15.0 19.0 0.00 0.00 0.00 38 1010.3
20260504010536 75 233 13.0 19.0 0.00 0.00 0.00 39 1010.3
20260504010049 75 245 13.0 20.0 0.00 0.00 0.00 41 1010.4
20260504005536 74 237 15.0 21.0 0.00 0.00 0.00 42 1010.4
20260504005036 74 251 17.0 22.0 0.00 0.00 0.00 43 1010.4
20260504004548 73 236 16.0 25.0 0.00 0.00 0.00 43 1010.6
20260504004038 74 237 15.0 25.0 0.00 0.00 0.00 46 1010.6
20260504003536 74 216 18.0 25.0 0.00 0.00 0.00 44 1010.7
20260504003053 75 236 19.0 25.0 0.00 0.00 0.00 42 1010.7
20260504002537 75 239 15.0 25.0 0.00 0.00 0.00 42 1010.7
20260504002037 75 214 16.0 24.0 0.00 0.00 0.00 40 1010.7
20260504001546 75 245 16.0 23.0 0.00 0.00 0.00 40 1010.9
20260504001038 75 239 14.0 23.0 0.00 0.00 0.00 41 1010.9
20260504000536 75 226 11.0 23.0 0.00 0.00 0.00 42 1010.9
20260504000116 75 234 14.0 24.0 0.00 0.00 0.00 41 1011.0
20260503235536 75 244 14.0 24.0 0.00 0.00 0.00 40 1011.0
20260503235036 75 244 15.0 24.0 0.00 0.00 0.00 40 1011.1
20260503234556 75 205 15.0 23.0 0.00 0.00 0.00 39 1011.1
20260503234037 74 211 16.0 22.0 0.00 0.00 0.00 43 1011.2
20260503233537 75 238 14.0 22.0 0.00 0.00 0.00 44 1011.2
20260503233045 74 245 16.0 22.0 0.00 0.00 0.00 46 1011.2
20260503232536 74 244 14.0 21.0 0.00 0.00 0.00 45 1011.3
20260503232036 74 243 17.0 22.0 0.00 0.00 0.00 45 1011.3
20260503231543 74 251 16.0 22.0 0.00 0.00 0.00 45 1011.5
20260503231036 73 246 17.0 22.0 0.00 0.00 0.00 47 1011.5
20260503230537 73 245 17.0 24.0 0.00 0.00 0.00 48 1011.6
20260503230049 73 248 18.0 24.0 0.00 0.00 0.00 48 1011.6
20260503225538 73 245 18.0 24.0 0.00 0.00 0.00 44 1011.6
20260503225036 72 243 17.0 22.0 0.00 0.00 0.00 46 1011.8
20260503224546 73 251 15.0 22.0 0.00 0.00 0.00 49 1011.9
20260503224036 72 236 15.0 22.0 0.00 0.00 0.00 45 1012.0
20260503223537 72 217 16.0 21.0 0.00 0.00 0.00 46 1012.1
20260503223049 71 208 15.0 20.0 0.00 0.00 0.00 46 1012.3
20260503222539 72 247 15.0 19.0 0.00 0.00 0.00 45 1012.3
20260503222037 72 256 11.0 16.0 0.00 0.00 0.00 49 1012.4
20260503221553 72 244 12.0 16.0 0.00 0.00 0.00 49 1012.5
20260503221101 72 245 9.0 16.0 0.00 0.00 0.00 47 1012.7
20260503220536 71 237 13.0 16.0 0.00 0.00 0.00 49 1012.7
20260503220049 72 245 11.0 15.0 0.00 0.00 0.00 49 1012.8
20260503215536 72 244 11.0 15.0 0.00 0.00 0.00 55 1012.8
20260503215036 72 247 11.0 17.0 0.00 0.00 0.00 53 1012.8
20260503214552 70 243 12.0 17.0 0.00 0.00 0.00 54 1012.8
20260503214040 71 252 14.0 17.0 0.00 0.00 0.00 58 1012.9
20260503213536 72 256 11.0 14.0 0.00 0.00 0.00 58 1012.9
20260503213040 72 264 9.0 14.0 0.00 0.00 0.00 51 1013.0
20260503212539 71 250 10.0 14.0 0.00 0.00 0.00 49 1013.0
20260503212036 70 248 9.0 15.0 0.00 0.00 0.00 52 1013.0
20260503211559 69 256 11.0 17.0 0.00 0.00 0.00 60 1013.2
20260503211035 69 247 12.0 17.0 0.00 0.00 0.00 60 1013.2
20260503210536 68 252 14.0 17.0 0.00 0.00 0.00 62 1013.4
20260503210050 68 252 15.0 17.0 0.00 0.00 0.00 62 1013.5
20260503205537 68 260 14.0 17.0 0.00 0.00 0.00 65 1013.5
20260503205036 67 251 13.0 17.0 0.00 0.00 0.00 66 1013.6
20260503204548 67 256 14.0 17.0 0.00 0.00 0.00 66 1013.5
20260503204036 67 258 14.0 17.0 0.00 0.00 0.00 67 1013.6
20260503203536 67 255 12.0 17.0 0.00 0.00 0.00 66 1013.6
20260503203105 67 254 14.0 17.0 0.00 0.00 0.00 65 1013.7
20260503202538 68 255 14.0 17.0 0.00 0.00 0.00 65 1013.7
20260503202036 68 259 12.0 14.0 0.00 0.00 0.00 65 1013.9
20260503201548 68 268 11.0 15.0 0.00 0.00 0.00 62 1013.9
20260503201036 67 256 11.0 17.0 0.00 0.00 0.00 69 1014.0
20260503200536 66 252 13.0 17.0 0.00 0.00 0.00 69 1014.1
20260503200043 66 252 14.0 17.0 0.00 0.00 0.00 71 1014.2
20260503195535 66 257 13.0 18.0 0.00 0.00 0.00 71 1014.2
20260503195037 65 253 13.0 18.0 0.00 0.00 0.00 72 1014.3
20260503194554 65 251 15.0 18.0 0.00 0.00 0.00 73 1014.4
20260503194037 66 261 14.0 17.0 0.00 0.00 0.00 71 1014.4
20260503193540 66 250 14.0 16.0 0.00 0.00 0.00 70 1014.6
20260503193051 66 258 14.0 16.0 0.00 0.00 0.00 70 1014.7
20260503192540 66 257 13.0 15.0 0.00 0.00 0.00 70 1014.7
20260503192038 66 259 12.0 15.0 0.00 0.00 0.00 72 1014.7
20260503191547 65 258 12.0 15.0 0.00 0.00 0.00 73 1014.8
20260503191043 65 262 12.0 14.0 0.00 0.00 0.00 71 1014.9
20260503190541 65 262 11.0 14.0 0.00 0.00 0.00 72 1014.9
20260503190049 65 257 10.0 14.0 0.00 0.00 0.00 72 1015.0
20260503185540 64 260 11.0 15.0 0.00 0.00 0.00 71 1015.0
20260503185040 64 257 11.0 15.0 0.00 0.00 0.00 73 1015.0
20260503184544 63 240 12.0 15.0 0.00 0.00 0.00 72 1015.1
20260503184040 63 254 12.0 15.0 0.00 0.00 0.00 73 1015.1
20260503183540 63 261 13.0 15.0 0.00 0.00 0.00 71 1015.1
20260503183047 63 252 13.0 16.0 0.00 0.00 0.00 72 1015.1
20260503182541 63 245 13.0 17.0 0.00 0.00 0.00 73 1015.1
20260503182039 62 251 13.0 17.0 0.00 0.00 0.00 75 1015.1
20260503181556 62 254 13.0 15.0 0.00 0.00 0.00 75 1015.1
20260503181040 62 249 13.0 15.0 0.00 0.00 0.00 74 1015.1
20260503180540 62 249 13.0 15.0 0.00 0.00 0.00 76 1015.1
20260503180049 61 257 13.0 15.0 0.00 0.00 0.00 76 1015.2
20260503175540 61 251 14.0 16.0 0.00 0.00 0.00 77 1015.3
20260503175040 61 256 14.0 16.0 0.00 0.00 0.00 78 1015.3
20260503174551 60 258 14.0 17.0 0.00 0.00 0.00 78 1015.2
20260503174040 60 255 15.0 17.0 0.00 0.00 0.00 79 1015.3
20260503173538 60 253 15.0 18.0 0.00 0.00 0.00 79 1015.2
20260503173054 59 258 15.0 19.0 0.00 0.00 0.00 81 1015.2
20260503172541 59 254 16.0 19.0 0.00 0.00 0.00 80 1015.2
20260503172040 59 252 17.0 19.0 0.00 0.00 0.00 81 1015.3
20260503171547 59 254 17.0 19.0 0.00 0.00 0.00 81 1015.3
20260503171039 60 252 14.0 17.0 0.00 0.00 0.00 80 1015.4
20260503170540 60 253 11.0 13.0 0.00 0.00 0.00 80 1015.4
20260503150539 59 247 10.0 13.0 0.00 0.00 0.00 77 1016.0